Home   Weather   Yonkers   Past weeks
Flag for USA

Past Weather in Yonkers, New York, USA — Yesterday and Last 2 Weeks

Now
57 °F

Clear.


Feels Like: 57 °F
Forecast: 65 / 45 °F
Wind: 5 mph from West

Location: Teterboro Airport

Current Time: Oct 23, 2019 at 10:56:29 pm

Latest Report: Oct 23, 2019 at 9:51 pm


Visibility: 10 mi

Pressure: 30.13 "Hg

Humidity: 41%

Dew Point: 33 °F

Location of YonkersLocation

Past Weather in Yonkers — Graph

°F

Yonkers Temperature Yesterday

Maximum temperature yesterday: 61 °F (at 3:51 pm)
Minimum temperature yesterday: 53 °F (at 12:51 am)
Average temperature yesterday: 58 °F

High & Low Weather Summary for the Past Weeks

 TemperatureHumidityPressure
High74 °F (Oct 14, 2:51 pm)94% (Oct 23, 12:02 am)30.30 "Hg (Oct 23, 12:02 am)
Low38 °F (Oct 19, 5:51 am)23% (Oct 10, 6:51 pm)29.12 "Hg (Oct 16, 9:51 pm)
Average58 °F63%29.96 "Hg
* Reported Oct 8 8:51 pm — Oct 23 8:51 pm, Yonkers. Weather by CustomWeather, © 2019

Note: Actual official high and low records may vary slightly from our data, if they occured in-between our weather recording intervals... More about our weather records

Advertising

Yonkers Weather History for the Previous 24 Hours

Scroll right to see more
 ConditionsComfort  
Time TempWeatherWind HumidityBarometerVisibility
8:51 pm
Wed, Oct 23
58 °FClear.7 mph41%30.11 "Hg10 mi
7:51 pm58 °FClear.8 mph44%30.08 "Hg10 mi
6:51 pm60 °FClear.6 mph38%30.04 "Hg10 mi
5:51 pm62 °FSunny.12 mph34%30.00 "Hg10 mi
4:51 pm65 °FSunny.14 mph29%29.97 "Hg10 mi
3:51 pm67 °FSunny.13 mph29%29.95 "Hg10 mi
2:51 pm67 °FSunny.17 mph29%29.93 "Hg10 mi
1:51 pm66 °FSunny.9 mph33%29.93 "Hg10 mi
12:51 pm66 °FPassing clouds.12 mph37%29.94 "Hg10 mi
11:51 am65 °FSunny.12 mph42%29.93 "Hg10 mi
10:51 am64 °FSunny.9 mph50%29.92 "Hg10 mi
9:51 am61 °FSunny.13 mph60%29.92 "Hg10 mi
8:51 am59 °FSunny.7 mph69%29.89 "Hg10 mi
7:51 am57 °FSunny.5 mph78%29.86 "Hg10 mi
6:51 am57 °FClear.6 mph81%29.82 "Hg10 mi
5:51 am58 °FClear.7 mph84%29.80 "Hg10 mi
4:51 am57 °FLight rain. Clear.5 mph87%29.78 "Hg10 mi
3:51 am60 °FLight rain. Overcast.No wind86%29.76 "Hg10 mi
2:51 am61 °FLight rain. Fog.5 mph87%29.75 "Hg5 mi
2:12 am61 °FLight rain. Fog.10 mph90%29.76 "Hg5 mi
1:51 am61 °FLight rain. Fog.9 mph90%29.76 "Hg5 mi
12:58 am66 °FLight rain. Fog.7 mph87%29.75 "Hg5 mi
12:02 am64 °FLight rain. Fog.10 mph94%29.76 "Hg2 mi
10:51 pm
Tue, Oct 22
61 °FLight rain. Fog.7 mph93%29.79 "Hg3 mi
Weather by CustomWeather, © 2019

See weather overview